Location: Newark
(30.0333°N, 31.2167°E)
Time: 11:14:00
(UTC+00:00)

Tiros 1 - Visible Passes

Search period start: 28 January 2020 00:00
Search period end: 07 February 2020 00:00
Orbit: 630 x 664 km, 48.4° (Epoch: 28 January)

Date Brightness Start Highest point End Pass type
(mag) Time Alt. Az. Time Alt. Az. Time Alt. Az.
28 Jan 7.3 15:47:50 10° NW 15:52:34 60° NE 15:57:18 10° ESE visible
28 Jan 9.7 17:31:08 10° W 17:34:25 18° SW 17:37:42 10° S visible
29 Jan 8.0 16:13:55 10° WNW 16:18:35 54° SW 16:23:16 10° SSE visible
30 Jan 9.8 16:40:53 10° W 16:44:24 20° SW 16:47:54 10° S visible
01 Feb 9.9 15:50:40 10° WNW 15:54:21 22° SW 15:58:05 10° S visible
05 Feb 10.2 03:54:18 10° SSE 03:56:34 13° SE 03:58:48 10° E visible
